| time (UTC) | temp C | wind direction | speed KPH | gust KPH | rain 1hr cm | rain 24hr cm | rain mn cm | humidity % | barometer mb |
| 20260506020039 | 15 | 18 | 8.0 | 19.3 | 0.00 | 0.00 | 0.00 | 48 | 1010.8 |
| 20260506014546 | 15 | 18 | 3.2 | 6.4 | 0.00 | 0.00 | 0.00 | 43 | 1010.7 |
| 20260506013039 | 15 | 18 | 1.6 | 6.4 | 0.00 | 0.00 | 0.00 | 44 | 1010.7 |
| 20260506011540 | 14 | 18 | 3.2 | 11.3 | 0.00 | 0.00 | 0.00 | 47 | 1010.9 |
| 20260506010036 | 15 | 18 | 4.8 | 16.1 | 0.00 | 0.00 | 0.00 | 45 | 1010.8 |
| 20260506004541 | 15 | 17 | 6.4 | 14.5 | 0.00 | 0.00 | 0.00 | 43 | 1010.9 |
| 20260506003034 | 16 | 18 | 9.7 | 19.3 | 0.00 | 0.00 | 0.00 | 43 | 1010.8 |
| 20260506001538 | 15 | 18 | 0.0 | 8.0 | 0.00 | 0.00 | 0.00 | 49 | 1011.0 |
| 20260506000037 | 15 | 18 | 1.6 | 12.9 | 0.00 | 0.00 | 0.00 | 51 | 1011.1 |
| 20260505234527 | 13 | 18 | 3.2 | 9.7 | 0.00 | 0.00 | 0.00 | 53 | 1011.1 |
| 20260505233026 | 12 | 18 | 1.6 | 14.5 | 0.00 | 0.00 | 0.00 | 60 | 1011.2 |
| 20260505231525 | 13 | 18 | 3.2 | 8.0 | 0.00 | 0.00 | 0.00 | 61 | 1011.4 |
| 20260505230032 | 13 | 18 | 1.6 | 8.0 | 0.00 | 0.00 | 0.00 | 58 | 1011.6 |
| 20260505224534 | 14 | 18 | 1.6 | 6.4 | 0.00 | 0.00 | 0.00 | 59 | 1011.7 |
| 20260505223028 | 13 | 18 | 1.6 | 8.0 | 0.00 | 0.00 | 0.00 | 60 | 1011.8 |
| 20260505221517 | 12 | 18 | 1.6 | 8.0 | 0.00 | 0.00 | 0.00 | 61 | 1012.0 |
| 20260505220025 | 12 | 18 | 8.0 | 14.5 | 0.00 | 0.00 | 0.00 | 67 | 1012.1 |
| 20260505214518 | 11 | 18 | 8.0 | 12.9 | 0.00 | 0.00 | 0.00 | 69 | 1012.2 |
| 20260505213011 | 11 | 18 | 4.8 | 11.3 | 0.00 | 0.00 | 0.00 | 67 | 1012.4 |
| 20260505211511 | 11 | 18 | 0.0 | 6.4 | 0.00 | 0.00 | 0.00 | 69 | 1012.4 |
| 20260505210008 | 10 | 18 | 0.0 | 6.4 | 0.00 | 0.00 | 0.00 | 74 | 1012.5 |
| 20260505204510 | 10 | 17 | 3.2 | 6.4 | 0.00 | 0.00 | 0.00 | 77 | 1012.6 |
| 20260505203002 | 9 | 17 | 1.6 | 9.7 | 0.00 | 0.00 | 0.00 | 81 | 1012.6 |
| 20260505201607 | 9 | 17 | 6.4 | 11.3 | 0.00 | 0.00 | 0.00 | 80 | 1012.6 |
| 20260505200057 | 8 | 18 | 1.6 | 6.4 | 0.00 | 0.00 | 0.00 | 84 | 1012.8 |
| 20260505194555 | 8 | 17 | 1.6 | 8.0 | 0.00 | 0.00 | 0.00 | 84 | 1012.8 |
| 20260505193052 | 7 | 17 | 0.0 | 6.4 | 0.00 | 0.00 | 0.00 | 88 | 1012.8 |
| 20260505191555 | 7 | 17 | 0.0 | 8.0 | 0.00 | 0.00 | 0.00 | 87 | 1012.7 |
| 20260505190103 | 7 | 17 | 1.6 | 9.7 | 0.00 | 0.00 | 0.00 | 90 | 1012.5 |
| 20260505184559 | 7 | 17 | 4.8 | 11.3 | 0.00 | 0.00 | 0.00 | 89 | 1012.4 |
| 20260505183050 | 6 | 17 | 1.6 | 6.4 | 0.00 | 0.00 | 0.00 | 90 | 1012.4 |
| 20260505181541 | 6 | 17 | 1.6 | 6.4 | 0.00 | 0.00 | 0.00 | 92 | 1012.4 |
| 20260505180042 | 6 | 17 | 4.8 | 11.3 | 0.00 | 0.00 | 0.00 | 93 | 1012.3 |
| 20260505174541 | 6 | 17 | 8.0 | 12.9 | 0.00 | 0.00 | 0.00 | 93 | 1012.0 |
| 20260505173039 | 5 | 18 | 4.8 | 12.9 | 0.00 | 0.00 | 0.00 | 95 | 1011.8 |
| 20260505171539 | 5 | 18 | 4.8 | 14.5 | 0.00 | 0.00 | 0.00 | 95 | 1011.6 |
| 20260505170033 | 5 | 18 | 8.0 | 14.5 | 0.00 | 0.00 | 0.00 | 95 | 1011.4 |
| 20260505164535 | 5 | 17 | 4.8 | 9.7 | 0.00 | 0.00 | 0.00 | 95 | 1011.5 |
| 20260505163029 | 4 | 17 | 4.8 | 8.0 | 0.00 | 0.00 | 0.00 | 95 | 1011.4 |
| 20260505161524 | 4 | 17 | 3.2 | 11.3 | 0.00 | 0.00 | 0.00 | 95 | 1011.2 |
| 20260505153026 | 4 | 17 | 0.0 | 3.2 | 0.00 | 0.00 | 0.00 | 95 | 1010.8 |
| 20260505151518 | 4 | 17 | 0.0 | 4.8 | 0.00 | 0.00 | 0.00 | 95 | 1010.6 |
| 20260505124607 | 3 | 17 | 9.7 | 14.5 | 0.00 | 0.00 | 0.00 | 95 | 1008.5 |
| 20260505123112 | 3 | 17 | 6.4 | 12.9 | 0.00 | 0.00 | 0.00 | 95 | 1008.4 |
| 20260505121557 | 3 | 18 | 6.4 | 12.9 | 0.00 | 0.00 | 0.00 | 95 | 1008.4 |
| 20260505120057 | 3 | 18 | 1.6 | 8.0 | 0.00 | 0.00 | 0.00 | 95 | 1008.5 |
| 20260505114602 | 3 | 18 | 0.0 | 6.4 | 0.00 | 0.00 | 0.00 | 95 | 1008.4 |
| 20260505113057 | 3 | 17 | 3.2 | 8.0 | 0.00 | 0.00 | 0.00 | 95 | 1008.4 |
| 20260505111600 | 3 | 17 | 0.0 | 6.4 | 0.00 | 0.00 | 0.00 | 95 | 1008.4 |
| 20260505101553 | 3 | 18 | 0.0 | 1.6 | 0.00 | 0.00 | 0.00 | 95 | 1008.5 |
| 20260505100059 | 3 | 17 | 0.0 | 3.2 | 0.00 | 0.00 | 0.00 | 95 | 1008.4 |
| 20260505094551 | 3 | 17 | 0.0 | 6.4 | 0.00 | 0.00 | 0.00 | 95 | 1008.7 |
| 20260505093050 | 3 | 18 | 0.0 | 1.6 | 0.00 | 0.00 | 0.00 | 95 | 1008.6 |
| 20260505091550 | 3 | 18 | 0.0 | 8.0 | 0.00 | 0.00 | 0.00 | 95 | 1008.7 |
| 20260505090100 | 3 | 17 | 4.8 | 9.7 | 0.00 | 0.00 | 0.00 | 95 | 1008.2 |
| 20260505084547 | 3 | 17 | 0.0 | 4.8 | 0.00 | 0.00 | 0.00 | 95 | 1008.6 |
| 20260505083046 | 3 | 17 | 0.0 | 1.6 | 0.00 | 0.00 | 0.00 | 95 | 1008.8 |
| 20260505081548 | 3 | 17 | 3.2 | 6.4 | 0.00 | 0.00 | 0.00 | 95 | 1008.8 |
| 20260505080052 | 3 | 17 | 1.6 | 9.7 | 0.00 | 0.00 | 0.00 | 94 | 1008.7 |
| 20260505074543 | 3 | 17 | 9.7 | 14.5 | 0.00 | 0.00 | 0.00 | 94 | 1008.7 |
| 20260505073052 | 3 | 17 | 4.8 | 8.0 | 0.00 | 0.00 | 0.00 | 94 | 1008.4 |
| 20260505071537 | 3 | 18 | 0.0 | 9.7 | 0.00 | 0.00 | 0.00 | 93 | 1009.3 |
| 20260505070034 | 3 | 18 | 0.0 | 11.3 | 0.00 | 0.00 | 0.00 | 93 | 1008.8 |
| 20260505064532 | 3 | 18 | 0.0 | 8.0 | 0.00 | 0.00 | 0.00 | 92 | 1008.8 |
| 20260505063034 | 3 | 18 | 0.0 | 8.0 | 0.00 | 0.00 | 0.00 | 93 | 1008.6 |
| 20260505061531 | 3 | 18 | 1.6 | 4.8 | 0.00 | 0.00 | 0.00 | 92 | 1008.5 |
| 20260505060034 | 3 | 17 | 0.0 | 14.5 | 0.00 | 0.00 | 0.00 | 91 | 1008.4 |
| 20260505054529 | 3 | 17 | 8.0 | 22.5 | 0.00 | 0.00 | 0.00 | 91 | 1008.4 |
| 20260505053029 | 3 | 17 | 0.0 | 9.7 | 0.00 | 0.00 | 0.00 | 92 | 1008.7 |
| 20260505051528 | 3 | 18 | 0.0 | 3.2 | 0.00 | 0.00 | 0.00 | 91 | 1008.8 |
| 20260505041539 | 3 | 17 | 0.0 | 4.8 | 0.00 | 0.00 | 0.00 | 91 | 1008.5 |
| 20260505040022 | 4 | 18 | 1.6 | 4.8 | 0.00 | 0.00 | 0.00 | 90 | 1007.9 |
| 20260505034521 | 3 | 17 | 1.6 | 4.8 | 0.00 | 0.00 | 0.00 | 92 | 1007.6 |
| 20260505033020 | 3 | 17 | 3.2 | 11.3 | 0.00 | 0.00 | 0.00 | 92 | 1007.5 |
| 20260505031519 | 3 | 17 | 3.2 | 8.0 | 0.00 | 0.00 | 0.00 | 93 | 1007.9 |
| 20260505030020 | 3 | 18 | 0.0 | 6.4 | 0.00 | 0.00 | 0.00 | 92 | 1008.2 |
| 20260505024521 | 3 | 18 | 0.0 | 4.8 | 0.00 | 0.00 | 0.00 | 91 | 1008.0 |
| 20260505023017 | 3 | 17 | 0.0 | 4.8 | 0.00 | 0.00 | 0.00 | 92 | 1007.6 |
| 20260505021520 | 3 | 17 | 8.0 | 16.1 | 0.00 | 0.00 | 0.00 | 92 | 1007.2 |